RH
2 2 2 3 6 10 13 13 10 7 5 5 6 8 6 7 7 7 7 7 7 6 6 5 4 4 6
2 3 6 10 13 14 9 5 6 8 9 9 8 8 8 8 8 8 7 7 6 6 7 7 6 5 4
8 11 12 14 9 4 6 10 11 10 8 9 9 9 9 9 9 8 8 7 7 7 7 6 8 8 5
18 15 11 4 7 10 8 10 9 10 11 14 11 10 10 8 7 7 6 6 6 7 7 6 6 6 8
13 5 6 15 15 11 8 8 30 68 72 73 66 58 48 32 19 13 10 8 7 7 6 7 7 6 7
4 16 19 15 10 12 44 66 70 90 99 100 100 100 91 92 53 22 29 38 31 13 9 7 7 7 6
23 21 12 14 53 67 69 78 98 100 97 97 98 72 70 88 81 53 50 68 77 86 90 19 10 7 6
20 15 45 76 76 74 85 82 83 81 36 42 93 77 78 78 86 96 100 96 96 100 100 66 16 10 6
33 86 94 91 93 79 73 75 87 100 71 81 97 85 86 99 100 68 89 100 100 89 58 18 13 9 6
100 100 98 99 94 87 86 94 99 100 98 100 100 84 100 98 70 57 72 56 28 13 13 13 10 7 6
100 98 98 100 100 100 100 99 100 100 100 100 100 100 100 100 48 38 26 17 10 9 10 8 7 6 8
98 100 100 100 100 100 100 100 97 99 100 100 100 100 100 74 29 17 13 10 8 8 7 6 5 6 28
100 100 100 100 100 100 100 100 96 100 100 100 100 98 80 30 17 14 25 66 26 8 7 6 6 14 59
100 100 100 100 100 100 100 100 100 100 100 100 99 81 68 19 15 12 12 43 96 10 7 6 8 33 63
100 100 100 100 100 100 100 100 100 100 100 90 64 27 21 19 17 18 58 51 70 87 9 6 8 34 57
98 95 96 100 100 96 94 99 99 100 100 100 33 19 19 21 19 70 100 52 56 20 21 9 6 14 42
44 31 23 21 36 91 98 93 92 100 100 100 96 25 18 19 20 53 100 100 100 24 31 29 27 14 8
Wind_Speed
91 87 85 85 81 84 85 83 81 78 75 74 70 68 69 69 68 68 68 68 68 68 70 75 81 86 88
83 79 77 73 72 74 78 79 75 70 67 64 62 64 64 65 66 66 65 65 66 66 67 67 70 77 84
80 74 71 74 72 70 65 62 62 61 59 59 62 63 64 64 65 64 62 62 62 63 64 68 68 66 72
80 76 74 68 63 60 55 50 48 47 49 52 53 54 54 57 57 56 56 58 59 60 61 61 63 67 66
82 74 59 54 55 51 43 36 30 32 33 37 38 36 37 41 41 41 41 43 46 52 60 62 62 63 66
62 53 51 49 44 37 29 27 28 36 38 35 42 38 39 39 37 35 32 31 32 38 46 54 61 64 63
50 47 43 38 32 33 37 38 36 35 40 28 39 41 39 39 38 36 34 33 34 33 34 42 53 60 63
44 40 35 38 43 42 37 24 21 25 37 30 32 34 35 35 35 38 40 40 40 39 37 35 41 51 62
34 37 41 44 41 29 24 20 18 22 28 26 29 26 27 31 35 34 31 33 38 35 32 33 37 45 61
34 36 34 30 30 28 27 29 29 27 32 29 25 22 22 28 28 25 21 20 20 21 23 25 33 48 56
25 25 28 27 27 28 31 30 25 24 25 24 23 25 25 23 21 15 14 15 12 11 14 19 34 47 58
23 23 22 22 23 24 26 28 30 28 26 21 23 17 15 16 12 12 12 11 6 4 13 22 35 52 60
22 22 21 21 23 24 25 28 32 30 24 24 18 12 13 10 11 10 10 11 13 7 10 24 40 55 55
20 20 21 21 21 21 22 25 28 27 23 20 14 12 13 12 12 13 15 24 19 14 14 25 44 50 49
20 21 21 22 22 21 22 24 26 27 20 20 18 12 12 14 18 22 28 23 22 23 19 22 37 46 45
20 21 21 21 20 21 22 22 24 25 18 18 18 15 15 16 18 30 24 23 23 20 28 20 26 37 42
24 24 24 23 21 19 18 18 20 20 19 14 15 14 13 14 17 25 31 27 26 24 31 26 26 28 32
Wind_Direction
300 299 296 294 294 295 295 294 292 289 287 285 284 280 276 272 270 269 266 263 260 257 255 250 246 241 237
301 299 298 296 295 293 291 292 291 290 287 285 282 277 275 272 271 270 268 265 261 257 252 249 246 242 236
304 303 301 300 297 294 292 291 289 289 289 286 281 279 278 276 274 272 269 265 261 258 253 248 243 241 238
305 305 305 302 300 299 295 296 292 289 288 289 288 285 283 279 277 272 268 264 260 256 251 247 242 238 236
305 307 305 302 300 300 303 297 291 300 304 303 299 299 294 290 287 281 274 268 262 256 251 247 240 235 231
308 309 308 305 307 310 309 304 297 298 297 298 294 292 295 299 297 288 280 276 272 264 254 246 239 233 227
311 311 312 315 316 312 311 310 311 305 289 284 278 284 284 290 296 295 289 288 283 284 275 254 241 230 221
313 315 319 319 318 322 324 328 314 300 293 307 296 295 296 298 297 300 296 294 290 289 276 247 238 224 212
318 320 320 318 321 331 336 339 330 311 316 330 313 319 310 301 296 301 302 295 283 273 262 246 227 211 200
317 316 319 325 328 332 332 327 324 313 305 305 304 322 318 314 315 319 302 289 282 268 251 232 209 192 189
331 333 334 334 332 332 334 339 344 337 327 321 309 300 308 319 324 316 310 304 286 254 223 190 180 182 180
350 353 353 351 350 350 347 350 352 349 343 340 339 333 330 334 328 339 348 351 347 233 192 178 178 176 177
359 -0 2 3 3 358 354 360 0 358 3 0 8 19 11 3 13 25 65 58 53 80 159 166 169 173 176
356 358 2 5 3 1 4 9 7 8 12 16 25 34 23 38 50 55 69 80 68 78 124 156 167 172 176
352 354 357 357 359 4 8 10 10 20 20 22 24 32 44 58 69 77 72 72 92 79 108 145 168 175 179
343 344 344 345 351 353 359 4 13 18 29 31 36 45 58 68 87 97 86 90 84 98 101 113 152 176 181
334 333 331 332 330 332 345 354 5 15 28 43 39 56 76 87 103 115 109 108 105 105 99 105 123 141 164